Location: Tafessasset
(32.5899°N, 5.4824°W)
Time: 14:21:09
(UTC+00:00)

USA 267 - Pass Details

Date: 18 February 2020
Orbit: 1101 x 1107 km, 123.0° (Epoch: 26 March)

Event Time Altitude Azimuth Distance (km) Brightness Sun altitude
Rises 04:45:19 0° 145° (SE) 3,903 6.5 -29.5°
Reaches altitude 10° 04:47:49 10° 148° (SSE) 2,947 5.8 -29.0°
Maximum altitude 04:54:15 65° 230° (SW) 1,195 3.1 -27.7°
Enters shadow 04:54:39 64° 250° (WSW) 1,206 3.1 -27.6°
